,,Stat6,,Stat2,,Stat8,,Stat9,,Stat10,,Wind1,,Wind1,
time,status,PA1M_AVG,status,PR1M_SUM,status,RH1M_AVG,status,SR1M_AVG,status,TA1M_AVG,status,W1dAve1m,status,W1sAve1m,
2009-06-04, 00:00:00,VALID,919.94,VALID,0,VALID,100,VALID,0,VALID,18.0343,VALID,27,VALID,0,
2009-06-04, 00:01:00,VALID,919.921,VALID,0,VALID,100,VALID,0.0339617,VALID,18.0635,VALID,27,VALID,0,
2009-06-04, 00:02:00,VALID,919.912,VALID,0,VALID,100,VALID,0.0339617,VALID,18.064,VALID,26,VALID,0,
2009-06-04, 00:03:00,VALID,919.899,VALID,0,VALID,100,VALID,0.0339617,VALID,18.0638,VALID,26,VALID,0,
2009-06-04, 00:04:00,VALID,919.885,VALID,0,VALID,100,VALID,0,VALID,18.0702,VALID,26,VALID,0,
2009-06-04, 00:05:00,VALID,919.884,VALID,0,VALID,100,VALID,0.0169808,VALID,18.0828,VALID,26,VALID,0,
2009-06-04, 00:06:00,VALID,919.877,VALID,0,VALID,100,VALID,0.0509425,VALID,18.0672,VALID,26,VALID,0,
2009-06-04, 00:07:00,VALID,919.894,VALID,0,VALID,100,VALID,0.0169808,VALID,18.0473,VALID,26,VALID,0,
2009-06-04, 00:08:00,VALID,919.903,VALID,0,VALID,100,VALID,0.0169808,VALID,18.045,VALID,26,VALID,0,
2009-06-04, 00:09:00,VALID,919.897,VALID,0,VALID,100,VALID,0,VALID,18.0193,VALID,26,VALID,0,
2009-06-04, 00:10:00,VALID,919.903,VALID,0,VALID,100,VALID,-0.0679233,VALID,18.0098,VALID,26,VALID,0,
2009-06-04, 00:11:00,VALID,919.894,VALID,0,VALID,100,VALID,-0.0679233,VALID,18.0065,VALID,24,VALID,0,
2009-06-04, 00:12:00,VALID,919.876,VALID,0,VALID,100,VALID,-0.0339617,VALID,17.9836,VALID,15,VALID,0,
2009-06-04, 00:13:00,VALID,919.878,VALID,0,VALID,100,VALID,-0.0849042,VALID,18.0035,VALID,15,VALID,0,
2009-06-04, 00:14:00,VALID,919.883,VALID,0,VALID,100,VALID,-0.0679233,VALID,18.0128,VALID,15,VALID,0,
2009-06-04, 00:15:00,VALID,919.875,VALID,0,VALID,100,VALID,-0.0849042,VALID,18.013,VALID,15,VALID,0,
2009-06-04, 00:16:00,VALID,919.874,VALID,0,VALID,100,VALID,-0.0509425,VALID,18.013,VALID,15,VALID,0,
2009-06-04, 00:17:00,VALID,919.879,VALID,0,VALID,100,VALID,-0.0849042,VALID,18.0292,VALID,15,VALID,0,
2009-06-04, 00:18:00,VALID,919.893,VALID,0,VALID,100,VALID,-0.0849042,VALID,18.0227,VALID,15,VALID,0,
2009-06-04, 00:19:00,VALID,919.899,VALID,0,VALID,100,VALID,-0.0679233,VALID,18.023,VALID,15,VALID,0,
2009-06-04, 00:20:00,VALID,919.875,VALID,0,VALID,100,VALID,-0.0339617,VALID,18.0065,VALID,29,VALID,0,
2009-06-04, 00:21:00,VALID,919.855,VALID,0,VALID,100,VALID,-0.0509425,VALID,17.9933,VALID,36,VALID,0,
2009-06-04, 00:22:00,VALID,919.846,VALID,0,VALID,100,VALID,-0.0849042,VALID,17.9806,VALID,10,VALID,0,
2009-06-04, 00:23:00,VALID,919.812,VALID,0,VALID,100,VALID,-0.0849042,VALID,17.9743,VALID,352,VALID,0,
2009-06-04, 00:24:00,VALID,919.782,VALID,0,VALID,100,VALID,-0.0509425,VALID,18.0033,VALID,352,VALID,0,
2009-06-04, 00:25:00,VALID,919.751,VALID,0,VALID,100,VALID,-0.0339617,VALID,18.019,VALID,352,VALID,0,
2009-06-04, 00:26:00,VALID,919.702,VALID,0,VALID,100,VALID,-0.0169808,VALID,18.0288,VALID,352,VALID,0,
2009-06-04, 00:27:00,VALID,919.674,VALID,0,VALID,100,VALID,-0.0169808,VALID,18.0385,VALID,352,VALID,0,
2009-06-04, 00:28:00,VALID,919.647,VALID,0,VALID,100,VALID,0,VALID,18.0547,VALID,352,VALID,0,
2009-06-04, 00:29:00,VALID,919.633,VALID,0,VALID,100,VALID,-0.0509425,VALID,18.0644,VALID,311,VALID,0,
2009-06-04, 00:30:00,VALID,919.619,VALID,0,VALID,100,VALID,-0.0339617,VALID,18.0549,VALID,291,VALID,0,
2009-06-04, 00:31:00,VALID,919.608,VALID,0,VALID,100,VALID,-0.0679233,VALID,18.0651,VALID,291,VALID,0,
2009-06-04, 00:32:00,VALID,919.581,VALID,0,VALID,100,VALID,-0.0339617,VALID,18.0422,VALID,299,VALID,0,
2009-06-04, 00:33:00,VALID,919.54,VALID,0,VALID,100,VALID,-0.101885,VALID,18.0325,VALID,321,VALID,0,
2009-06-04, 00:34:00,VALID,919.533,VALID,0,VALID,100,VALID,-0.0849042,VALID,18.0626,VALID,355,VALID,0,
2009-06-04, 00:35:00,VALID,919.521,VALID,0,VALID,100,VALID,-0.0849042,VALID,18.0394,VALID,1,VALID,0,
2009-06-04, 00:36:00,VALID,919.497,VALID,0,VALID,100,VALID,-0.101885,VALID,18.0292,VALID,355,VALID,0,
2009-06-04, 00:37:00,VALID,919.476,VALID,0,VALID,100,VALID,-0.0339617,VALID,18.0452,INVALID,360,VALID,0,
2009-06-04, 00:38:00,VALID,919.454,VALID,0,VALID,100,VALID,-0.0679233,VALID,18.0427,VALID,304,VALID,0,
2009-06-04, 00:39:00,VALID,919.423,VALID,0,VALID,100,VALID,-0.0339617,VALID,18.0095,VALID,304,VALID,0,
2009-06-04, 00:40:00,VALID,919.399,VALID,0,VALID,100,VALID,0.0169808,VALID,18.0156,VALID,303,VALID,0,
2009-06-04, 00:41:00,VALID,919.367,VALID,0,VALID,100,VALID,0.0509425,VALID,18.0186,VALID,305,VALID,0,
2009-06-04, 00:42:00,VALID,919.343,VALID,0,VALID,100,VALID,0.0679233,VALID,18.0411,VALID,358,VALID,0,
2009-06-04, 00:43:00,VALID,919.328,VALID,0,VALID,100,VALID,0.0169808,VALID,18.0702,VALID,8,VALID,0,
2009-06-04, 00:44:00,VALID,919.31,VALID,0,VALID,100,VALID,0.0169808,VALID,18.0962,VALID,29,VALID,0,
2009-06-04, 00:45:00,VALID,919.284,VALID,0,VALID,100,VALID,0.0339617,VALID,18.0862,VALID,5,VALID,0,
2009-06-04, 00:46:00,VALID,919.261,VALID,0,VALID,100,VALID,0.0509425,VALID,18.1061,VALID,6,VALID,0,
2009-06-04, 00:47:00,VALID,919.234,VALID,0,VALID,100,VALID,0.0339617,VALID,18.1386,VALID,11,VALID,0,
2009-06-04, 00:48:00,VALID,919.217,VALID,0,VALID,100,VALID,0.0339617,VALID,18.1414,VALID,19,VALID,0,
2009-06-04, 00:49:00,VALID,919.182,VALID,0,VALID,100,VALID,0.0679233,VALID,18.1282,VALID,20,VALID,0,
2009-06-04, 00:50:00,VALID,919.176,VALID,0,VALID,100,VALID,0.0679233,VALID,18.1701,VALID,27,VALID,0,
2009-06-04, 00:51:00,VALID,919.168,VALID,0,VALID,100,VALID,0.0339617,VALID,18.2129,VALID,3,VALID,0,
2009-06-04, 00:52:00,VALID,919.14,VALID,0,VALID,100,VALID,0.0169808,VALID,18.2294,VALID,360,VALID,0,
2009-06-04, 00:53:00,VALID,919.107,VALID,0,VALID,100,VALID,0.0169808,VALID,18.2521,VALID,11,VALID,0,
2009-06-04, 00:54:00,VALID,919.086,VALID,0,VALID,100,VALID,-0.0339617,VALID,18.272,VALID,10,VALID,0,
2009-06-04, 00:55:00,VALID,919.068,VALID,0,VALID,100,VALID,-0.0679233,VALID,18.2792,VALID,353,VALID,0,
2009-06-04, 00:56:00,VALID,919.045,VALID,0,VALID,100,VALID,-0.0849042,VALID,18.3054,VALID,359,VALID,0.0509673,
2009-06-04, 00:57:00,VALID,919.004,VALID,0,VALID,100,VALID,-0.0849042,VALID,18.3408,VALID,355,VALID,0.0517361,
2009-06-04, 00:58:00,VALID,918.993,VALID,0,VALID,100,VALID,-0.0679233,VALID,18.3575,VALID,358,VALID,0,
2009-06-04, 00:59:00,VALID,918.971,VALID,0,VALID,100,VALID,-0.101885,VALID,18.3538,VALID,351,VALID,0,
2009-06-04, 01:00:00,VALID,918.96,VALID,0,VALID,100,VALID,-0.0849042,VALID,18.344,VALID,353,VALID,0,
2009-06-04, 01:01:00,VALID,918.947,VALID,0,VALID,100,VALID,-0.0849042,VALID,18.3149,VALID,355,VALID,0,
2009-06-04, 01:02:00,VALID,918.956,VALID,0,VALID,99.9242,VALID,-0.0339617,VALID,18.266,VALID,310,VALID,0,
2009-06-04, 01:03:00,VALID,918.965,VALID,0,VALID,99.723,VALID,-0.0679233,VALID,18.1779,VALID,287,VALID,0,
2009-06-04, 01:04:00,VALID,918.952,VALID,0,VALID,99.9273,VALID,-0.0849042,VALID,18.1235,VALID,340,VALID,0.00111607,
2009-06-04, 01:05:00,VALID,918.953,VALID,0,VALID,100,VALID,-0.0679233,VALID,18.0878,VALID,22,VALID,0.003125,
2009-06-04, 01:06:00,VALID,918.945,VALID,0,VALID,100,VALID,-0.0849042,VALID,18.0485,VALID,12,VALID,0,
2009-06-04, 01:07:00,VALID,918.95,VALID,0,VALID,100,VALID,-0.0679233,VALID,18.0195,VALID,291,VALID,0,
2009-06-04, 01:08:00,VALID,918.947,VALID,0,VALID,100,VALID,-0.0169808,VALID,17.9845,VALID,286,VALID,0,
2009-06-04, 01:09:00,VALID,918.938,VALID,0,VALID,100,VALID,-0.0169808,VALID,17.9414,VALID,295,VALID,0,
2009-06-04, 01:10:00,VALID,918.943,VALID,0,VALID,100,VALID,-0.0679233,VALID,17.9222,VALID,299,VALID,0,
2009-06-04, 01:11:00,VALID,918.944,VALID,0,VALID,100,VALID,-0.0169808,VALID,17.8861,VALID,299,VALID,0,
2009-06-04, 01:12:00,VALID,918.951,VALID,0,VALID,100,VALID,-0.0339617,VALID,17.8731,VALID,280,VALID,0,
2009-06-04, 01:13:00,VALID,918.931,VALID,0,VALID,100,VALID,-0.0169808,VALID,17.8472,VALID,276,VALID,0,
2009-06-04, 01:14:00,VALID,918.918,VALID,0,VALID,100,VALID,-0.0339617,VALID,17.8439,VALID,305,VALID,0,
2009-06-04, 01:15:00,VALID,918.91,VALID,0,VALID,100,VALID,-0.0679233,VALID,17.8504,VALID,4,VALID,0,
2009-06-04, 01:16:00,VALID,918.885,VALID,0,VALID,100,VALID,-0.0849042,VALID,17.8539,VALID,5,VALID,0,
2009-06-04, 01:17:00,VALID,918.868,VALID,0,VALID,100,VALID,-0.0679233,VALID,17.8381,VALID,13,VALID,0,
2009-06-04, 01:18:00,VALID,918.845,VALID,0,VALID,100,VALID,0.0169808,VALID,17.8154,VALID,20,VALID,0,
2009-06-04, 01:19:00,VALID,918.822,VALID,0,VALID,100,VALID,-0.0339617,VALID,17.7992,VALID,334,VALID,0,
2009-06-04, 01:20:00,VALID,918.79,VALID,0,VALID,100,VALID,-0.0339617,VALID,17.7897,INVALID,360,VALID,0,
2009-06-04, 01:21:00,VALID,918.765,VALID,0,VALID,100,VALID,-0.0339617,VALID,17.7733,VALID,5,VALID,0,
2009-06-04, 01:22:00,VALID,918.758,VALID,0,VALID,100,VALID,-0.0509425,VALID,17.7992,VALID,340,VALID,0,
2009-06-04, 01:23:00,VALID,918.74,VALID,0,VALID,100,VALID,-0.101885,VALID,17.8288,VALID,340,VALID,0,
2009-06-04, 01:24:00,VALID,918.75,VALID,0,VALID,100,VALID,-0.0679233,VALID,17.8282,VALID,319,VALID,0,
2009-06-04, 01:25:00,VALID,918.753,VALID,0,VALID,100,VALID,-0.0509425,VALID,17.8828,VALID,356,VALID,0,
2009-06-04, 01:26:00,VALID,918.757,VALID,0,VALID,100,VALID,-0.0339617,VALID,17.9315,VALID,359,VALID,0.0413491,
2009-06-04, 01:27:00,VALID,918.772,VALID,0,VALID,100,VALID,-0.0509425,VALID,17.9641,VALID,11,VALID,0,
2009-06-04, 01:28:00,VALID,918.79,VALID,0,VALID,100,VALID,-0.0509425,VALID,18.0028,VALID,11,VALID,0,
2009-06-04, 01:29:00,VALID,918.804,VALID,0,VALID,100,VALID,-0.0679233,VALID,18.016,VALID,314,VALID,0,
2009-06-04, 01:30:00,VALID,918.792,VALID,0,VALID,100,VALID,-0.0509425,VALID,18.0195,VALID,275,VALID,0,
2009-06-04, 01:31:00,VALID,918.759,VALID,0,VALID,100,VALID,0,VALID,18.0063,VALID,325,VALID,0,
2009-06-04, 01:32:00,VALID,918.76,VALID,0,VALID,100,VALID,0,VALID,18.0387,VALID,24,VALID,0,
2009-06-04, 01:33:00,VALID,918.766,VALID,0,VALID,100,VALID,-0.0679233,VALID,18.0487,VALID,345,VALID,0,
2009-06-04, 01:34:00,VALID,918.739,VALID,0,VALID,100,VALID,-0.0169808,VALID,18.0355,VALID,300,VALID,0,
2009-06-04, 01:35:00,VALID,918.724,VALID,0,VALID,100,VALID,-0.0509425,VALID,18.0619,VALID,341,VALID,0,
2009-06-04, 01:36:00,VALID,918.719,VALID,0,VALID,100,VALID,-0.0339617,VALID,18.1101,VALID,353,VALID,0,
2009-06-04, 01:37:00,VALID,918.717,VALID,0,VALID,100,VALID,-0.0679233,VALID,18.1525,VALID,353,VALID,0,
2009-06-04, 01:38:00,VALID,918.712,VALID,0,VALID,100,VALID,-0.0509425,VALID,18.1367,VALID,353,VALID,0,
2009-06-04, 01:39:00,VALID,918.724,VALID,0,VALID,100,VALID,-0.0509425,VALID,18.1034,VALID,353,VALID,0,
2009-06-04, 01:40:00,VALID,918.728,VALID,0,VALID,100,VALID,-0.0169808,VALID,18.0874,VALID,353,VALID,0,
2009-06-04, 01:41:00,VALID,918.74,VALID,0,VALID,100,VALID,-0.0169808,VALID,18.0644,VALID,352,VALID,0,
2009-06-04, 01:42:00,VALID,918.742,VALID,0,VALID,100,VALID,-0.0339617,VALID,18.0422,VALID,352,VALID,0,
2009-06-04, 01:43:00,VALID,918.746,VALID,0,VALID,100,VALID,-0.0679233,VALID,18.0193,VALID,348,VALID,0,
2009-06-04, 01:44:00,VALID,918.762,VALID,0,VALID,100,VALID,-0.0679233,VALID,18.0163,VALID,344,VALID,0,
2009-06-04, 01:45:00,VALID,918.767,VALID,0,VALID,100,VALID,-0.0169808,VALID,18.0063,VALID,343,VALID,0,
2009-06-04, 01:46:00,VALID,918.783,VALID,0,VALID,100,VALID,-0.0169808,VALID,18.0132,VALID,321,VALID,0,
2009-06-04, 01:47:00,VALID,918.768,VALID,0,VALID,100,VALID,0,VALID,18.0095,VALID,319,VALID,0,
2009-06-04, 01:48:00,VALID,918.767,VALID,0,VALID,100,VALID,-0.0339617,VALID,18.0098,VALID,319,VALID,0,
2009-06-04, 01:49:00,VALID,918.768,VALID,0,VALID,100,VALID,0,VALID,18.01,VALID,319,VALID,0,
2009-06-04, 01:50:00,VALID,918.76,VALID,0,VALID,100,VALID,-0.0169808,VALID,18.013,VALID,319,VALID,0,
2009-06-04, 01:51:00,VALID,918.748,VALID,0,VALID,100,VALID,-0.0339617,VALID,18.0227,VALID,319,VALID,0,
2009-06-04, 01:52:00,VALID,918.736,VALID,0,VALID,100,VALID,-0.0169808,VALID,18.0058,VALID,319,VALID,0,
2009-06-04, 01:53:00,VALID,918.715,VALID,0,VALID,100,VALID,-0.0339617,VALID,18.0258,VALID,319,VALID,0,
2009-06-04, 01:54:00,VALID,918.678,VALID,0,VALID,100,VALID,-0.0849042,VALID,18.0464,VALID,319,VALID,0,
2009-06-04, 01:55:00,VALID,918.678,VALID,0,VALID,100,VALID,-0.135847,VALID,18.0468,VALID,319,VALID,0,
2009-06-04, 01:56:00,VALID,918.647,VALID,0,VALID,100,VALID,-0.135847,VALID,18.0334,VALID,319,VALID,0,
2009-06-04, 01:57:00,VALID,918.622,VALID,0,VALID,100,VALID,-0.135847,VALID,18.0241,VALID,319,VALID,0,
2009-06-04, 01:58:00,VALID,918.588,VALID,0,VALID,100,VALID,-0.118866,VALID,18.0012,VALID,319,VALID,0,
2009-06-04, 01:59:00,VALID,918.561,VALID,0,VALID,100,VALID,-0.135847,VALID,17.962,VALID,319,VALID,0,
2009-06-04, 02:00:00,VALID,918.565,VALID,0,VALID,100,VALID,-0.118866,VALID,17.9426,VALID,319,VALID,0,
2009-06-04, 02:01:00,VALID,918.557,VALID,0,VALID,100,VALID,-0.169808,VALID,17.9301,VALID,319,VALID,0,
2009-06-04, 02:02:00,VALID,918.553,VALID,0,VALID,100,VALID,-0.152827,VALID,17.9039,VALID,319,VALID,0,
2009-06-04, 02:03:00,VALID,918.54,VALID,0,VALID,100,VALID,-0.135847,VALID,17.9041,VALID,319,VALID,0,
2009-06-04, 02:04:00,VALID,918.55,VALID,0,VALID,100,VALID,-0.135847,VALID,17.8814,VALID,319,VALID,0,
2009-06-04, 02:05:00,VALID,918.535,VALID,0,VALID,100,VALID,-0.152827,VALID,17.8749,VALID,319,VALID,0,
2009-06-04, 02:06:00,VALID,918.536,VALID,0,VALID,100,VALID,-0.20377,VALID,17.8457,VALID,319,VALID,0,
2009-06-04, 02:07:00,VALID,918.548,VALID,0,VALID,100,VALID,-0.152827,VALID,17.8235,VALID,319,VALID,0,
2009-06-04, 02:08:00,VALID,918.54,VALID,0,VALID,100,VALID,-0.152827,VALID,17.8332,VALID,319,VALID,0,
2009-06-04, 02:09:00,VALID,918.526,VALID,0,VALID,100,VALID,-0.0679233,VALID,17.8377,VALID,319,VALID,0,
2009-06-04, 02:10:00,VALID,918.51,VALID,0,VALID,100,VALID,0,VALID,17.8467,VALID,319,VALID,0,
2009-06-04, 02:11:00,VALID,918.489,VALID,0,VALID,100,VALID,0.0169808,VALID,17.8463,VALID,319,VALID,0,
2009-06-04, 02:12:00,VALID,918.463,VALID,0,VALID,100,VALID,0.0169808,VALID,17.8629,VALID,319,VALID,0,
2009-06-04, 02:13:00,VALID,918.418,VALID,0,VALID,100,VALID,-0.0169808,VALID,17.8562,VALID,319,VALID,0,
2009-06-04, 02:14:00,VALID,918.408,VALID,0,VALID,100,VALID,0.0169808,VALID,17.8303,VALID,319,VALID,0,
2009-06-04, 02:15:00,VALID,918.386,VALID,0,VALID,100,VALID,0,VALID,17.8145,VALID,319,VALID,0,
2009-06-04, 02:16:00,VALID,918.363,VALID,0,VALID,100,VALID,0,VALID,17.8011,VALID,319,VALID,0,
2009-06-04, 02:17:00,VALID,918.343,VALID,0,VALID,100,VALID,0,VALID,17.7918,VALID,349,VALID,0,
2009-06-04, 02:18:00,VALID,918.349,VALID,0,VALID,100,VALID,0.0169808,VALID,17.7784,VALID,351,VALID,0,
2009-06-04, 02:19:00,VALID,918.333,VALID,0,VALID,100,VALID,0.0169808,VALID,17.7654,VALID,351,VALID,0,
2009-06-04, 02:20:00,VALID,918.316,VALID,0,VALID,100,VALID,0.0169808,VALID,17.7721,VALID,351,VALID,0,
2009-06-04, 02:21:00,VALID,918.3,VALID,0,VALID,100,VALID,0.0169808,VALID,17.7592,VALID,339,VALID,0,
2009-06-04, 02:22:00,VALID,918.265,VALID,0,VALID,100,VALID,0,VALID,17.7654,VALID,274,VALID,0,
2009-06-04, 02:23:00,VALID,918.244,VALID,0,VALID,100,VALID,0.0169808,VALID,17.7951,VALID,281,VALID,0,
2009-06-04, 02:24:00,VALID,918.231,VALID,0,VALID,100,VALID,0.0169808,VALID,17.8307,VALID,287,VALID,0,
2009-06-04, 02:25:00,VALID,918.214,VALID,0,VALID,100,VALID,-0.0169808,VALID,17.8664,VALID,298,VALID,0,
2009-06-04, 02:26:00,VALID,918.186,VALID,0,VALID,100,VALID,0.0339617,VALID,17.853,VALID,298,VALID,0,
2009-06-04, 02:27:01,VALID,918.193,VALID,0,VALID,100,VALID,0.0339617,VALID,17.827,VALID,298,VALID,0,
2009-06-04, 02:28:00,VALID,918.182,VALID,0,VALID,100,VALID,0.0849042,VALID,17.8136,VALID,275,VALID,0,
2009-06-04, 02:29:00,VALID,918.181,VALID,0,VALID,100,VALID,0.0509425,VALID,17.8205,VALID,235,VALID,0,
2009-06-04, 02:30:00,VALID,918.177,VALID,0,VALID,100,VALID,0.0509425,VALID,17.8266,VALID,227,VALID,0,
2009-06-04, 02:31:01,VALID,918.166,VALID,0,VALID,100,VALID,0.0169808,VALID,17.8333,VALID,272,VALID,0,
2009-06-04, 02:32:00,VALID,918.153,VALID,0,VALID,100,VALID,0,VALID,17.8208,VALID,315,VALID,0,
2009-06-04, 02:33:00,VALID,918.154,VALID,0,VALID,100,VALID,0.0169808,VALID,17.8078,VALID,37,VALID,0.0962891,
2009-06-04, 02:34:00,VALID,918.169,VALID,0,VALID,100,VALID,0.0509425,VALID,17.8043,VALID,22,VALID,0,
2009-06-04, 02:35:00,VALID,918.166,VALID,0,VALID,100,VALID,0.0339617,VALID,17.7916,VALID,22,VALID,0,
2009-06-04, 02:36:00,VALID,918.167,VALID,0,VALID,100,VALID,0.0679233,VALID,17.7946,VALID,22,VALID,0,
2009-06-04, 02:37:00,VALID,918.162,VALID,0,VALID,100,VALID,0.0169808,VALID,17.8039,VALID,23,VALID,0,
2009-06-04, 02:38:00,VALID,918.173,VALID,0,VALID,100,VALID,0.0679233,VALID,17.8104,VALID,23,VALID,0,
2009-06-04, 02:39:01,VALID,918.183,VALID,0,VALID,100,VALID,-0.0169808,VALID,17.8242,VALID,23,VALID,0,
2009-06-04, 02:40:01,VALID,918.198,VALID,0,VALID,100,VALID,-0.0849042,VALID,17.8314,VALID,23,VALID,0,
2009-06-04, 02:41:00,VALID,918.18,VALID,0,VALID,100,VALID,-0.0679233,VALID,17.893,VALID,29,VALID,0,
2009-06-04, 02:42:00,VALID,918.171,VALID,0,VALID,100,VALID,-0.0679233,VALID,17.9449,VALID,26,VALID,0,
2009-06-04, 02:43:00,VALID,918.164,VALID,0,VALID,100,VALID,-0.101885,VALID,17.9349,VALID,28,VALID,0,
2009-06-04, 02:44:01,VALID,918.161,VALID,0,VALID,100,VALID,-0.101885,VALID,17.9257,VALID,27,VALID,0,
2009-06-04, 02:45:00,VALID,918.161,VALID,0,VALID,100,VALID,-0.0679233,VALID,17.8898,VALID,27,VALID,0,
2009-06-04, 02:46:00,VALID,918.156,VALID,0,VALID,100,VALID,-0.0679233,VALID,17.8833,VALID,28,VALID,0,
2009-06-04, 02:47:01,VALID,918.151,VALID,0,VALID,100,VALID,-0.101885,VALID,17.8701,VALID,28,VALID,0,
2009-06-04, 02:48:00,VALID,918.141,VALID,0,VALID,100,VALID,-0.0849042,VALID,17.8506,VALID,28,VALID,0,
2009-06-04, 02:49:00,VALID,918.149,VALID,0,VALID,100,VALID,-0.0509425,VALID,17.8601,VALID,28,VALID,0,
2009-06-04, 02:50:01,VALID,918.126,VALID,0,VALID,100,VALID,-0.0509425,VALID,17.8506,VALID,28,VALID,0,
2009-06-04, 02:51:01,VALID,918.103,VALID,0,VALID,100,VALID,-0.0509425,VALID,17.8439,VALID,28,VALID,0,
2009-06-04, 02:52:01,VALID,918.074,VALID,0,VALID,100,VALID,-0.0679233,VALID,17.8736,VALID,25,VALID,0,
2009-06-04, 02:53:01,VALID,918.057,VALID,0,VALID,100,VALID,-0.0679233,VALID,17.922,VALID,24,VALID,0,
2009-06-04, 02:54:00,VALID,918.027,VALID,0,VALID,100,VALID,-0.0509425,VALID,17.9609,VALID,24,VALID,0,
2009-06-04, 02:55:00,VALID,918.019,VALID,0,VALID,100,VALID,-0.0849042,VALID,17.9544,VALID,24,VALID,0,
2009-06-04, 02:56:01,VALID,917.998,VALID,0,VALID,100,VALID,-0.0849042,VALID,17.9514,VALID,24,VALID,0,
2009-06-04, 02:57:00,VALID,917.975,VALID,0,VALID,100,VALID,-0.101885,VALID,17.9644,VALID,24,VALID,0,
2009-06-04, 02:58:00,VALID,917.939,VALID,0,VALID,100,VALID,-0.0679233,VALID,17.9804,VALID,25,VALID,0,
2009-06-04, 02:59:01,VALID,917.907,VALID,0,VALID,100,VALID,-0.0849042,VALID,17.9972,VALID,36,VALID,0,
2009-06-04, 03:00:00,VALID,917.882,VALID,0,VALID,100,VALID,-0.0679233,VALID,17.9966,VALID,33,VALID,0.353237,
2009-06-04, 03:01:00,VALID,917.88,VALID,0,VALID,100,VALID,-0.101885,VALID,18.0688,VALID,36,VALID,0.328307,
2009-06-04, 03:02:01,VALID,917.871,VALID,0,VALID,100,VALID,-0.0509425,VALID,18.1367,VALID,40,VALID,0.0360137,
2009-06-04, 03:03:00,VALID,917.876,VALID,0,VALID,100,VALID,-0.0849042,VALID,18.1756,VALID,41,VALID,0.00509511,
2009-06-04, 03:04:01,VALID,917.892,VALID,0,VALID,100,VALID,-0.0679233,VALID,18.2046,VALID,11,VALID,0,
2009-06-04, 03:05:01,VALID,917.882,VALID,0,VALID,100,VALID,-0.0849042,VALID,18.1849,VALID,13,VALID,0,
2009-06-04, 03:06:00,VALID,917.852,VALID,0,VALID,100,VALID,-0.0849042,VALID,18.133,VALID,27,VALID,0.806323,
2009-06-04, 03:07:01,VALID,917.843,VALID,0,VALID,100,VALID,-0.0679233,VALID,18.136,VALID,35,VALID,0.934152,
2009-06-04, 03:08:01,VALID,917.838,VALID,0,VALID,100,VALID,-0.0679233,VALID,18.162,VALID,26,VALID,1.05971,
2009-06-04, 03:09:01,VALID,917.838,VALID,0,VALID,100,VALID,-0.0169808,VALID,18.1583,VALID,21,VALID,0.832564,
2009-06-04, 03:10:01,VALID,917.832,VALID,0,VALID,100,VALID,0,VALID,18.1712,VALID,23,VALID,0.855646,
2009-06-04, 03:11:01,VALID,917.832,VALID,0,VALID,100,VALID,-0.0169808,VALID,18.1937,VALID,17,VALID,0.944141,
2009-06-04, 03:12:01,VALID,917.839,VALID,0,VALID,100,VALID,0,VALID,18.2127,VALID,14,VALID,0.235709,
2009-06-04, 03:13:01,VALID,917.844,VALID,0,VALID,100,VALID,0,VALID,18.2451,VALID,24,VALID,0.205729,
2009-06-04, 03:14:01,VALID,917.843,VALID,0,VALID,100,VALID,0,VALID,18.2451,VALID,3,VALID,0.126116,
2009-06-04, 03:15:01,VALID,917.823,VALID,0,VALID,100,VALID,0.0169808,VALID,18.2349,VALID,19,VALID,0.352628,
2009-06-04, 03:16:00,VALID,917.806,VALID,0,VALID,100,VALID,0,VALID,18.2227,VALID,19,VALID,0.651101,
2009-06-04, 03:17:00,VALID,917.803,VALID,0,VALID,100,VALID,0,VALID,18.2164,VALID,4,VALID,0.526456,
2009-06-04, 03:18:00,VALID,917.798,VALID,0,VALID,100,VALID,0,VALID,18.2227,VALID,7,VALID,0.327148,
2009-06-04, 03:19:00,VALID,917.776,VALID,0,VALID,100,VALID,0,VALID,18.2359,VALID,16,VALID,0.523438,
2009-06-04, 03:20:00,VALID,917.77,VALID,0,VALID,100,VALID,0.0169808,VALID,18.2549,VALID,8,VALID,0.356707,
2009-06-04, 03:21:00,VALID,917.748,VALID,0,VALID,100,VALID,-0.0169808,VALID,18.2648,VALID,27,VALID,0.718149,
2009-06-04, 03:22:00,VALID,917.749,VALID,0,VALID,100,VALID,0,VALID,18.2942,VALID,30,VALID,0.770275,
2009-06-04, 03:23:00,VALID,917.75,VALID,0,VALID,100,VALID,0,VALID,18.3237,VALID,24,VALID,0.160429,
2009-06-04, 03:24:00,VALID,917.76,VALID,0,VALID,100,VALID,0,VALID,18.3369,VALID,12,VALID,0.539444,
2009-06-04, 03:25:00,VALID,917.758,VALID,0,VALID,100,VALID,0,VALID,18.3454,VALID,17,VALID,0,
2009-06-04, 03:26:00,VALID,917.756,VALID,0,VALID,100,VALID,0,VALID,18.3718,VALID,3,VALID,0.167039,
2009-06-04, 03:27:00,VALID,917.746,VALID,0,VALID,100,VALID,0.0169808,VALID,18.4077,VALID,355,VALID,0.00049867,
2009-06-04, 03:28:00,VALID,917.731,VALID,0,VALID,100,VALID,0,VALID,18.4337,VALID,10,VALID,0.392078,
2009-06-04, 03:29:00,VALID,917.73,VALID,0,VALID,100,VALID,0,VALID,18.5018,VALID,359,VALID,0,
2009-06-04, 03:30:00,VALID,917.705,VALID,0,VALID,100,VALID,0.0169808,VALID,18.5243,VALID,359,VALID,0.000762195,
2009-06-04, 03:31:00,VALID,917.702,VALID,0,VALID,100,VALID,0,VALID,18.5108,VALID,359,VALID,0.00319602,
2009-06-04, 03:32:00,VALID,917.708,VALID,0,VALID,100,VALID,0.0169808,VALID,18.5173,VALID,9,VALID,0,
2009-06-04, 03:33:00,VALID,917.713,VALID,0,VALID,100,VALID,0,VALID,18.5115,VALID,12,VALID,0.039572,
2009-06-04, 03:34:00,VALID,917.733,VALID,0,VALID,100,VALID,0.0169808,VALID,18.5048,VALID,7,VALID,0,
2009-06-04, 03:35:00,VALID,917.746,VALID,0,VALID,100,VALID,0,VALID,18.4721,VALID,7,VALID,0,
2009-06-04, 03:36:00,VALID,917.753,VALID,0,VALID,100,VALID,0,VALID,18.4631,VALID,9,VALID,0,
2009-06-04, 03:37:00,VALID,917.77,VALID,0,VALID,100,VALID,0,VALID,18.4469,VALID,11,VALID,0,
2009-06-04, 03:38:00,VALID,917.763,VALID,0,VALID,100,VALID,0.0509425,VALID,18.414,VALID,11,VALID,0,
2009-06-04, 03:39:00,VALID,917.757,VALID,0,VALID,100,VALID,-0.0509425,VALID,18.3989,VALID,12,VALID,0,
2009-06-04, 03:40:00,VALID,917.764,VALID,0,VALID,100,VALID,-0.101885,VALID,18.363,VALID,18,VALID,0,
2009-06-04, 03:41:00,VALID,917.734,VALID,0,VALID,100,VALID,-0.0849042,VALID,18.3607,VALID,18,VALID,0,
2009-06-04, 03:42:00,VALID,917.721,VALID,0,VALID,100,VALID,-0.0849042,VALID,18.3373,VALID,18,VALID,0,
2009-06-04, 03:43:00,VALID,917.705,VALID,0,VALID,100,VALID,-0.0509425,VALID,18.3179,VALID,18,VALID,0,
2009-06-04, 03:44:00,VALID,917.689,VALID,0,VALID,100,VALID,-0.0849042,VALID,18.3014,VALID,18,VALID,0,
2009-06-04, 03:45:00,VALID,917.66,VALID,0,VALID,100,VALID,-0.0849042,VALID,18.2989,VALID,18,VALID,0,
2009-06-04, 03:46:00,VALID,917.647,VALID,0,VALID,100,VALID,-0.0849042,VALID,18.2789,VALID,18,VALID,0,
2009-06-04, 03:47:00,VALID,917.637,VALID,0,VALID,100,VALID,-0.101885,VALID,18.2435,VALID,18,VALID,0,
2009-06-04, 03:48:00,VALID,917.627,VALID,0,VALID,100,VALID,-0.101885,VALID,18.244,VALID,18,VALID,0,
2009-06-04, 03:49:00,VALID,917.62,VALID,0,VALID,100,VALID,-0.101885,VALID,18.2273,VALID,18,VALID,0,
2009-06-04, 03:50:00,VALID,917.615,VALID,0,VALID,100,VALID,-0.101885,VALID,18.2083,VALID,18,VALID,0,
2009-06-04, 03:51:00,VALID,917.614,VALID,0,VALID,100,VALID,-0.0849042,VALID,18.1851,VALID,18,VALID,0,